De Winton South Calgary Airport

CEH4 · Alberta, Canadá

História da METAR CEH4 · De Winton South Calgary Airport

Abaixo você vê METARs dos últimos dias. Selecione um ano para navegar pelos METARs mais antigos, a partir do ano 2007.

28 de novembro de 2022

Hora Código Clima Temp. Visibilidade Tecto Vento METAR/SPECI
00:00
V
-11 °C 10 mi 18.000 ft 340° 340° 21 - 28 kt METAR CYYC 280700Z 34021G28KT 10SM DRSN FEW042 FEW092 BKN180 M11/M18 A2970 RMK SC1AC1AS5 SC TR SLP123

27 de novembro de 2022

Hora Código Clima Temp. Visibilidade Tecto Vento METAR/SPECI
23:00
V
-11 °C 10 mi 18.000 ft 350° 350° 23 - 29 kt METAR CYYC 280600Z 35023G29KT 10SM DRSN FEW140 BKN180 M11/M17 A2967 RMK AC2AC4 SLP111
22:00
V
-10 °C 10 mi - 350° 350° 20 - 29 kt METAR CYYC 280500Z 35020G29KT 10SM DRSN SCT190 M10/M17 A2966 RMK AC4 SLP105
21:00
V
-9 °C 10 mi - 350° 350° 20 - 27 kt METAR CYYC 280400Z 35020G27KT 10SM DRSN FEW030 FEW130 SCT220 M09/M15 A2964 RMK CF1AC1CI2 CF TR SLP095
20:00
V
-8 °C 10 mi - 350° 350° 16 - 24 kt METAR CYYC 280300Z 35016G24KT 10SM DRSN FEW035 SCT130 M08/M14 A2962 RMK SC2AC1 SLP084
19:15
V
-6 °C 7 mi 3.500 ft 360° 360° 21 - 29 kt METAR CYYC 280215Z 36021G29KT 7SM DRSN BKN035 M06/M12 A2960 RMK SC6 SLP073
19:00
V
-6 °C 10 mi 3.500 ft 350° 350° 19 - 26 kt METAR CYYC 280200Z 35019G26KT 10SM BKN035 M06/M11 A2959 RMK SC5 SLP071
18:00
V
-6 °C 10 mi 12.000 ft 340° 340° 7 kt METAR CYYC 280100Z 34007KT 10SM FEW080 BKN120 M06/M12 A2955 RMK AC2AC3 SLP055
17:00
V
-5 °C 15 mi 15.000 ft 340° 340° 8 kt METAR CYYC 280000Z 34008KT 15SM BKN150 OVC250 M05/M12 A2952 RMK AC7CI1 SLP044
16:00
V
-4 °C 15 mi 13.000 ft 330° 330° 8 kt METAR CYYC 272300Z 33008KT 15SM BKN130 M04/M09 A2950 RMK AC6 SLP034
15:45
V
-3 °C 15 mi 13.000 ft 320° 320° 8 kt METAR CYYC 272245Z 32008KT 15SM FEW050 OVC130 M03/M10 A2949 RMK SC1AC7 SLP032
15:00
V
-4 °C 6 mi 8.400 ft 340° 340° 9 - 17 kt METAR CYYC 272200Z 34009G17KT 6SM -SN SCT050 OVC084 M04/M08 A2947 RMK SC4AC4 SLP024
14:50
V
-4 °C 6 mi 5.000 ft 340° 340° 14 - 26 kt METAR CYYC 272150Z 34014G26KT 6SM -SN BKN050 M04/M08 A2946 RMK SC5 SLP023
14:00
I
-3 °C 1¼ mi 2.800 ft 350° 350° 12 - 22 kt METAR CYYC 272100Z 35012G22KT 1 1/4SM -SN BKN028 OVC050 M03/M06 A2945 RMK SC6SC2 SLP017
13:00
L
-3 °C ¾ mi 900 ft 360° 360° 17 kt METAR CYYC 272000Z 36017KT 3/4SM R35L/P6000FT/U R29/3500VP6000FT/U R35R/5500VP6000FT/U -SN BKN009 OVC015 M03/M05 A2944 RMK SN2SC4SC3 /S01/ SLP014
12:19
L
-3 °C ½ mi 1.500 ft 350° 350° 13 - 18 kt METAR CYYC 271919Z 35013G18KT 1/2SM R35L/4500V5000FT/N R29/5000VP6000FT/D R35R/4000V4500FT/N SN SCT008 VV015 M03/M04 A2943 RMK SC4SN8 SLP008
12:00
L
-3 °C ⅝ mi 1.400 ft 360° 360° 17 - 26 kt METAR CYYC 271900Z 36017G26KT 5/8SM R35L/4000V5500FT/U R29/5500VP6000FT/D R35R/4500VP6000FT/D -SN VV014 M03/M05 A2943 RMK SN8 SLP008
11:55
L
-3 °C ⅝ mi 1.400 ft 360° 360° 18 - 26 kt METAR CYYC 271855Z 36018G26KT 5/8SM R35L/4000VP6000FT/D R29/6000FT/D R35R/P6000FT/D -SN VV014 M03/M05 A2943 RMK SN8 SLP008
11:21
I
-2 °C 1 mi 1.800 ft 360° 360° 19 - 29 kt METAR CYYC 271821Z 36019G29KT 1SM R35L/P6000FT/N R29/P6000FT/N R35R/P6000FT/N -SN VV018 M02/M06 A2942 RMK SN8 SLP003
11:00
M
-1 °C 4 mi 3.200 ft 350° 350° 22 - 31 kt METAR CYYC 271800Z 35022G31KT 4SM -SN BKN032 OVC080 M01/M08 A2941 RMK SC6AC2 SLP003
10:51
V
-1 °C 5 mi 3.000 ft 360° 360° 25 - 31 kt METAR CYYC 271751Z 36025G31KT 5SM -SN BKN030 BKN075 OVC200 M01/M08 A2940 RMK SC5AC2CI1 SLP001
10:00
V
-1 °C 15 mi 8.000 ft 350° 350° 15 - 21 kt METAR CYYC 271700Z 35015G21KT 15SM BKN080 BKN150 M01/M09 A2939 RMK AC6AC1 SLP994
09:00
V
-1 °C 15 mi 16.000 ft 340° 340° 14 - 20 kt METAR CYYC 271600Z 34014G20KT 15SM FEW065 BKN160 OVC200 M01/M10 A2938 RMK SC1AC6CC1 SLP990
08:00
V
0 °C 15 mi 12.000 ft 330° 330° 15 - 23 kt METAR CYYC 271500Z 33015G23KT 15SM FEW065 BKN120 BKN200 00/M09 A2937 RMK SC1AC5CC1 PRESRR SLP984
07:08
V
1 °C 10 mi 19.000 ft 340° 340° 18 - 30 kt METAR CYYC 271408Z 34018G30KT 10SM SCT140 BKN190 01/M08 A2935 RMK AC4AC2 T SLP976
07:00
V
2 °C 10 mi 18.000 ft 010° 010° 13 - 22 kt METAR CYYC 271400Z 01013G22KT 10SM SCT140 BKN180 BKN220 02/M09 A2934 RMK AC4AC2CI1 CI TR SLP971
06:49
V
3 °C 10 mi 16.000 ft 350° 350° 16 - 28 kt METAR CYYC 271349Z 35016G28KT 250V010 10SM BKN160 03/M10 A2934 RMK AC6 PRESRR SLP969 DENSITY ALT 3700FT
06:00
V
3 °C 10 mi 16.000 ft 260° 260° 16 - 23 kt METAR CYYC 271300Z 26016G23KT 10SM BKN160 BKN180 03/M10 A2931 RMK AC6AC1 AC TR SLP957 DENSITY ALT 3800FT
05:00
V
3 °C 7 mi 16.000 ft 240° 240° 12 - 24 kt METAR CYYC 271200Z 24012G24KT 7SM OVC160 03/M10 A2934 RMK AC8 SLP969 DENSITY ALT 3700FT
04:00
V
2 °C 10 mi - 230° 230° 10 - 15 kt METAR CYYC 271100Z 23010G15KT 10SM FEW180 02/M09 A2936 RMK AC2 SLP977
03:00
V
2 °C 10 mi - 230° 230° 11 - 18 kt METAR CYYC 271000Z 23011G18KT 10SM FEW170 02/M09 A2939 RMK AC2 SLP985
02:00
V
2 °C 10 mi - 240° 240° 12 - 21 kt METAR CYYC 270900Z 24012G21KT 10SM FEW170 02/M10 A2942 RMK AC1 SLP993
01:19
V
2 °C 10 mi - 220° 220° 15 - 22 kt METAR CYYC 270819Z 22015G22KT 10SM FEW170 02/M11 A2944 RMK AC2 SLP002
01:00
V
3 °C 10 mi - 230° 230° 15 kt METAR CYYC 270800Z 23015KT 10SM FEW170 03/M10 A2945 RMK AC2 PRESFR SLP004
00:17
V
4 °C 10 mi - 260° 260° 15 - 30 kt METAR CYYC 270717Z 26015G30KT 10SM FEW180 SCT210 04/M11 A2948 RMK AC3CI1 PRESFR SLP014
00:00
V
4 °C 10 mi 21.000 ft 250° 250° 10 - 18 kt METAR CYYC 270700Z 25010G18KT 210V280 10SM SCT180 BKN210 04/M10 A2950 RMK AC4CI1 VIRGA SSE SLP022

26 de novembro de 2022

Hora Código Clima Temp. Visibilidade Tecto Vento METAR/SPECI
23:00
V
0 °C 10 mi 15.000 ft 160° 160° 7 kt METAR CYYC 270600Z 16007KT 10SM BKN150 BKN180 BKN210 M00/M08 A2955 RMK AC5AS1CI1 CI TR SLP047
22:00
V
1 °C 10 mi 15.000 ft 200° 200° 4 kt METAR CYYC 270500Z 20004KT 10SM BKN150 01/M09 A2958 RMK AC6 SLP060
21:00
V
1 °C 10 mi 12.000 ft 200° 200° 4 kt METAR CYYC 270400Z 20004KT 10SM BKN120 01/M09 A2963 RMK AC6 SLP079
20:00
V
2 °C 15 mi 18.000 ft 120° 120° 4 kt METAR CYYC 270300Z 12004KT 110V170 15SM BKN180 02/M10 A2967 RMK AS6 SLP094
19:20
V
3 °C 15 mi 21.000 ft Var Var 2 kt METAR CYYC 270220Z VRB02KT 15SM OVC210 03/M10 A2970 RMK CI8 SLP104
19:06
V
2 °C 15 mi 21.000 ft 300° 300° 7 kt METAR CYYC 270206Z 30007KT 15SM OVC210 02/M10 A2969 RMK CI8 SLP103
19:00
V
3 °C 15 mi 21.000 ft 300° 300° 11 kt METAR CYYC 270200Z 30011KT 15SM OVC210 03/M10 A2970 RMK CI8 SLP105
18:00
V
3 °C 15 mi 21.000 ft 260° 260° 8 - 16 kt METAR CYYC 270100Z 26008G16KT 15SM SCT190 BKN210 03/M10 A2972 RMK AC3CI4 SLP108
17:00
V
3 °C 30 mi 16.000 ft 250° 250° 8 kt METAR CYYC 270000Z 25008KT 210V280 30SM FEW053 FEW120 BKN160 OVC210 03/M10 A2976 RMK SC1AC1AC6CI2 SC TR AC TR SLP122
16:00
V
4 °C 30 mi 25.000 ft 260° 260° 12 - 21 kt METAR CYYC 262300Z 26012G21KT 30SM FEW058 FEW160 BKN250 04/M10 A2977 RMK SC1AC1CI6 SC TR SLP126
15:00
V
5 °C 40 mi - 260° 260° 11 - 18 kt METAR CYYC 262200Z 26011G18KT 220V290 40SM FEW064 FEW240 05/M10 A2980 RMK SC1CI2 SC TR SLP132
14:00
V
6 °C 40 mi 24.000 ft 270° 270° 12 - 17 kt METAR CYYC 262100Z 27012G17KT 40SM FEW065 BKN240 06/M11 A2984 RMK SC1CI7 SC TR SLP143
13:00
V
5 °C 40 mi 23.000 ft 260° 260° 10 - 15 kt METAR CYYC 262000Z 26010G15KT 40SM FEW061 BKN230 05/M10 A2987 RMK SC1CI6 SC TR SLP154
12:00
V
4 °C 40 mi 23.000 ft 200° 200° 5 kt METAR CYYC 261900Z 20005KT 160V240 40SM FEW044 BKN230 04/M08 A2989 RMK SC1CI5 SC TR SLP167
11:00
V
2 °C 40 mi - 210° 210° 8 kt METAR CYYC 261800Z 21008KT 40SM FEW050 SCT220 02/M08 A2991 RMK SC1CI3 SC TR SLP174
10:00
V
0 °C 40 mi - 180° 180° 10 kt METAR CYYC 261700Z 18010KT 40SM FEW050 FEW220 M00/M08 A2992 RMK SC1CI1 SC TR CC ASOCTD / FROST PTCHS ON GND SLP181
09:00
V
-3 °C 40 mi - 190° 190° 6 kt METAR CYYC 261600Z 19006KT 40SM FEW050 FEW220 M03/M08 A2994 RMK SC1CI1 SC TR CI TR FROIN SLP190
08:00
V
-4 °C 40 mi - 180° 180° 6 kt METAR CYYC 261500Z 18006KT 40SM FEW050 FEW220 M04/M08 A2994 RMK SC1CI1 SC TR CI TR FROIN SLP190
07:00
V
-4 °C 10 mi - 190° 190° 6 kt METAR CYYC 261400Z 19006KT 10SM FEW050 FEW220 M04/M07 A2995 RMK SC1CI1 SC TR CI TR FROIN / CONTRAILS SLP194
06:00
V
-3 °C 15 mi - 200° 200° 4 kt METAR CYYC 261300Z 20004KT 15SM FEW230 M03/M06 A2994 RMK CI1 CI TR FROIN SLP190
05:00
V
-3 °C 10 mi 21.000 ft 180° 180° 3 kt METAR CYYC 261200Z 18003KT 10SM BKN210 M03/M05 A2994 RMK CI6 FROIN SLP189
04:00
V
-2 °C 10 mi 21.000 ft 210° 210° 4 kt METAR CYYC 261100Z 21004KT 10SM BKN210 M02/M05 A2993 RMK CI5 FROIN SLP184
03:00
V
-1 °C 15 mi - 240° 240° 3 kt METAR CYYC 261000Z 24003KT 210V280 15SM SKC M01/M04 A2993 RMK SLP183
02:00
V
-1 °C 15 mi - 250° 250° 6 kt METAR CYYC 260900Z 25006KT 15SM FEW038 M01/M04 A2992 RMK SC1 SC TR SLP167
01:00
V
-1 °C 15 mi - 210° 210° 6 kt METAR CYYC 260800Z 21006KT 15SM FEW040 M01/M04 A2991 RMK SC1 SC TR SLP164
00:00
V
-1 °C 10 mi - 220° 220° 5 kt METAR CYYC 260700Z 22005KT 10SM SCT040 M01/M03 A2990 RMK SC3 SLP157

25 de novembro de 2022

Hora Código Clima Temp. Visibilidade Tecto Vento METAR/SPECI
23:00
V
0 °C 10 mi - 240° 240° 4 kt METAR CYYC 260600Z 24004KT 200V290 10SM FEW034 SCT050 M00/M03 A2990 RMK SC2SC1 SLP156
22:00
V
1 °C 10 mi 3.500 ft 260° 260° 4 kt METAR CYYC 260500Z 26004KT 10SM BKN035 BKN050 01/M03 A2988 RMK SC5SC1 SLP150
21:00
V
1 °C 7 mi 3.600 ft 260° 260° 4 kt METAR CYYC 260400Z 26004KT 7SM OVC036 01/M04 A2985 RMK SC8 SLP140
20:00
V
1 °C 7 mi 3.800 ft 310° 310° 5 kt METAR CYYC 260300Z 31005KT 7SM OVC038 01/M04 A2985 RMK SC8 SLP137
19:00
V
1 °C 15 mi 3.700 ft 350° 350° 8 kt METAR CYYC 260200Z 35008KT 15SM OVC037 01/M04 A2983 RMK SC8 SLP131
18:00
V
1 °C 15 mi 3.500 ft 340° 340° 10 kt METAR CYYC 260100Z 34010KT 15SM OVC035 01/M03 A2982 RMK SC8 SLP128
17:00
V
0 °C 15 mi 4.100 ft 360° 360° 15 kt METAR CYYC 260000Z 36015KT 15SM FEW016 BKN041 OVC250 00/M02 A2980 RMK SC2SC5CI1 SLP121
16:00
V
1 °C 15 mi 20.000 ft 360° 360° 14 - 23 kt METAR CYYC 252300Z 36014G23KT 15SM SCT013 BKN200 01/M02 A2977 RMK SC3CI4 CC ASOCTD SLP109
15:41
M
1 °C 20 mi 1.300 ft 010° 010° 17 - 26 kt METAR CYYC 252241Z 01017G26KT 20SM BKN013 OVC200 01/M02 A2977 RMK SC6CI2 SLP112
15:00
V
2 °C 20 mi 20.000 ft 010° 010° 23 - 30 kt METAR CYYC 252200Z 01023G30KT 20SM FEW039 BKN200 02/M02 A2975 RMK SC1CI6 SLP102
14:50
V
2 °C 20 mi 20.000 ft 360° 360° 21 - 27 kt SPECI CYYC 252150Z 36021G27KT 20SM FEW039 BKN200 02/M02 A2975 RMK SC1CI6 SLP101
14:00
V
9 °C 20 mi 25.000 ft 320° 320° 24 - 32 kt METAR CYYC 252100Z 32024G32KT 20SM FEW043 BKN250 09/M02 A2972 RMK SC1CI7 SC TR PRESRR SLP085 DENSITY ALT 4000FT
13:00
V
10 °C 20 mi 24.000 ft 290° 290° 11 - 19 kt METAR CYYC 252000Z 29011G19KT 20SM FEW053 FEW080 BKN240 10/M03 A2967 RMK SC1AC1CI7 SC TR AC TR CC ASOCTD SLP064 DENSITY ALT 4200FT
12:00
V
12 °C 20 mi 22.000 ft 260° 260° 18 - 34 kt METAR CYYC 251900Z 26018G34KT 20SM BKN220 12/M04 A2962 RMK CI7 SLP048 DENSITY ALT 4500FT
11:00
V
12 °C 30 mi 23.000 ft 260° 260° 11 - 19 kt METAR CYYC 251800Z 26011G19KT 30SM BKN230 12/M03 A2962 RMK CI7 CC ASOCTD SLP050 DENSITY ALT 4400FT
10:00
V
10 °C 30 mi - 240° 240° 7 kt METAR CYYC 251700Z 24007KT 220V280 30SM FEW061 SCT250 10/M05 A2964 RMK SC1CI4 SC TR CC ASOCTD SLP064 DENSITY ALT 4200FT
09:00
V
11 °C 40 mi - 230° 230° 16 - 24 kt METAR CYYC 251600Z 23016G24KT 40SM FEW066 SCT250 11/M06 A2966 RMK AC1CI4 AC TR CC ASOCTD SLP066 DENSITY ALT 4300FT
08:00
V
11 °C 40 mi - 240° 240° 11 - 20 kt METAR CYYC 251500Z 24011G20KT 40SM FEW070 SCT250 11/M07 A2967 RMK AC1CI3 AC TR SLP073 DENSITY ALT 4300FT
07:00
V
11 °C 15 mi - 230° 230° 12 - 19 kt METAR CYYC 251400Z 23012G19KT 15SM FEW250 11/M06 A2971 RMK CI2 SLP084 DENSITY ALT 4200FT
06:00
V
10 °C 15 mi - 220° 220° 12 - 18 kt METAR CYYC 251300Z 22012G18KT 15SM SKC 10/M06 A2974 RMK SLP097 DENSITY ALT 4100FT
05:00
V
11 °C 15 mi - 230° 230° 11 kt METAR CYYC 251200Z 23011KT 15SM SKC 11/M06 A2978 RMK SLP105 DENSITY ALT 4200FT
04:00
V
12 °C 15 mi - 270° 270° 15 - 22 kt METAR CYYC 251100Z 27015G22KT 15SM FEW250 12/M06 A2980 RMK CI2 SLP109 DENSITY ALT 4200FT
03:00
V
10 °C 15 mi - 230° 230° 8 kt METAR CYYC 251000Z 23008KT 200V280 15SM FEW250 10/M05 A2981 RMK CI2 SLP117 DENSITY ALT 4100FT

Nós e terceiros acompanhamos seu comportamento na internet em nosso site com cookies. Se você continuar, nós assumimos que você concorda com nosso política de cookies.